CW6391 Weather Reports


Display with metric or nautical units.
time (UTC)temp
F
wind
direction
speed
MPH
gust
MPH
rain 1hr
in
rain 24hr
in
rain mn
in
humidity
%
barometer
mb
20260508141158 60 13 3.0 6.0 0.00 0.00 0.00 51 1016.7
20260508140658 59 347 1.0 7.0 0.00 0.00 0.00 54 1016.7
20260508140204 59 354 2.0 7.0 0.00 0.00 0.00 54 1016.7
20260508135658 59 342 3.0 6.0 0.00 0.00 0.00 52 1016.7
20260508135158 59 351 2.0 7.0 0.00 0.00 0.00 53 1016.7
20260508134658 60 318 2.0 9.0 0.00 0.00 0.00 52 1016.7
20260508134158 60 341 1.0 7.0 0.00 0.00 0.00 55 1016.7
20260508133658 59 12 3.0 7.0 0.00 0.00 0.00 54 1016.7
20260508133158 58 358 2.0 9.0 0.00 0.00 0.00 56 1016.7
20260508132701 59 7 2.0 7.0 0.00 0.00 0.00 53 1016.7
20260508132158 59 1 4.0 10.0 0.00 0.00 0.00 52 1016.7
20260508131658 60 31 1.0 6.0 0.00 0.00 0.00 53 1016.7
20260508131158 59 352 2.0 10.0 0.00 0.00 0.00 50 1017.1
20260508130701 59 37 3.0 9.0 0.00 0.00 0.00 50 1017.1
20260508130158 62 350 4.0 9.0 0.00 0.00 0.00 45 1017.1
20260508125658 65 351 2.0 5.0 0.00 0.00 0.00 41 1017.1
20260508125158 65 250 2.0 4.0 0.00 0.00 0.00 41 1017.1
20260508124701 64 260 1.0 4.0 0.00 0.00 0.00 45 1017.1
20260508124201 62 253 1.0 4.0 0.00 0.00 0.00 47 1017.1
20260508123704 60 331 1.0 4.0 0.00 0.00 0.00 48 1017.1
20260508123201 60 350 2.0 7.0 0.00 0.00 0.00 46 1017.1
20260508122658 61 264 1.0 6.0 0.00 0.00 0.00 47 1017.1
20260508122158 61 337 2.0 7.0 0.00 0.00 0.00 46 1017.1
20260508121658 62 338 1.0 7.0 0.00 0.00 0.00 45 1017.1
20260508121205 62 273 2.0 7.0 0.00 0.00 0.00 47 1017.1
20260508120658 61 331 2.0 8.0 0.00 0.00 0.00 46 1017.1
20260508120202 62 344 2.0 6.0 0.00 0.00 0.00 45 1017.1
20260508115659 62 271 2.0 8.0 0.00 0.00 0.00 46 1017.1
20260508115158 62 16 1.0 7.0 0.00 0.00 0.00 48 1017.1
20260508114701 64 300 2.0 5.0 0.00 0.00 0.00 44 1017.1
20260508114202 64 216 1.0 6.0 0.00 0.00 0.00 47 1017.1
20260508113701 62 306 3.0 8.0 0.00 0.00 0.00 48 1017.1
20260508113201 62 252 3.0 8.0 0.00 0.00 0.00 46 1017.1
20260508112701 62 330 2.0 5.0 0.00 0.00 0.00 45 1017.1
20260508112159 61 314 2.0 6.0 0.00 0.00 0.00 47 1017.1
20260508111658 61 327 2.0 6.0 0.00 0.00 0.00 49 1017.1
20260508111158 61 49 2.0 7.0 0.00 0.00 0.00 48 1017.1
20260508110658 61 209 0.0 4.0 0.00 0.00 0.00 51 1017.1
20260508110158 60 332 2.0 5.0 0.00 0.00 0.00 50 1017.4
20260508105701 60 252 1.0 7.0 0.00 0.00 0.00 52 1017.1
20260508105201 59 290 1.0 7.0 0.00 0.00 0.00 54 1017.1
20260508104707 59 307 2.0 7.0 0.00 0.00 0.00 54 1017.1
20260508104158 59 301 2.0 7.0 0.00 0.00 0.00 53 1017.1
20260508103704 59 282 1.0 4.0 0.00 0.00 0.00 55 1017.1
20260508103201 58 329 2.0 4.0 0.00 0.00 0.00 53 1017.4
20260508102658 58 306 1.0 7.0 0.00 0.00 0.00 56 1017.4
20260508102158 59 250 2.0 5.0 0.00 0.00 0.00 55 1017.1
20260508101658 58 312 1.0 9.0 0.00 0.00 0.00 59 1017.1
20260508101201 56 322 3.0 7.0 0.00 0.00 0.00 60 1017.4
20260508100658 56 325 2.0 6.0 0.00 0.00 0.00 61 1017.4
20260508100204 56 317 3.0 9.0 0.00 0.00 0.00 61 1017.4
20260508095658 56 319 5.0 9.0 0.00 0.00 0.00 59 1017.4
20260508095204 57 326 3.0 6.0 0.00 0.00 0.00 57 1017.4
20260508094701 58 247 1.0 5.0 0.00 0.00 0.00 54 1017.4
20260508094158 56 33 1.0 5.0 0.00 0.00 0.00 55 1017.4
20260508093704 58 152 0.0 4.0 0.00 0.00 0.00 55 1017.4
20260508093207 56 173 2.0 4.0 0.00 0.00 0.00 57 1017.4
20260508092658 54 346 1.0 3.0 0.00 0.00 0.00 59 1017.4
20260508092201 55 20 1.0 4.0 0.00 0.00 0.00 60 1017.7
20260508091701 55 248 1.0 5.0 0.00 0.00 0.00 61 1017.7
20260508091158 55 49 1.0 5.0 0.00 0.00 0.00 64 1017.7
20260508090704 55 7 2.0 5.0 0.00 0.00 0.00 62 1017.7
20260508090201 55 320 1.0 3.0 0.00 0.00 0.00 62 1017.7
20260508085701 55 301 1.0 3.0 0.00 0.00 0.00 64 1017.7
20260508085204 55 245 1.0 3.0 0.00 0.00 0.00 68 1017.7
20260508084701 53 298 1.0 3.0 0.00 0.01 0.00 71 1017.7
20260508084204 53 323 1.0 3.0 0.00 0.01 0.00 71 1017.7
20260508083704 52 310 0.0 3.0 0.00 0.01 0.00 74 1017.7
20260508083158 51 14 0.0 3.0 0.00 0.01 0.00 74 1017.7
20260508082658 52 344 0.0 2.0 0.00 0.01 0.00 73 1017.7
20260508082158 51 319 0.0 3.0 0.00 0.01 0.00 75 1017.7
20260508081701 51 330 2.0 3.0 0.00 0.01 0.00 73 1017.7
20260508081158 51 230 2.0 3.0 0.00 0.01 0.00 75 1017.7
20260508080701 51 262 0.0 3.0 0.00 0.01 0.00 76 1017.7
20260508080158 51 297 0.0 3.0 0.00 0.01 0.00 77 1017.7
20260508075704 51 314 1.0 3.0 0.00 0.01 0.00 77 1017.7
20260508075158 50 288 0.0 4.0 0.00 0.01 0.00 79 1017.7
20260508074658 50 345 1.0 5.0 0.00 0.01 0.00 78 1017.7
20260508074201 50 284 0.0 3.0 0.00 0.01 0.00 78 1017.7
20260508073658 50 316 1.0 4.0 0.00 0.01 0.00 78 1017.4
20260508073158 50 328 1.0 3.0 0.00 0.01 0.00 77 1017.4
20260508072702 50 326 1.0 3.0 0.00 0.01 0.00 77 1017.4
20260508072158 49 323 1.0 4.0 0.00 0.01 0.00 78 1017.4
20260508071658 49 310 1.0 5.0 0.00 0.01 0.00 78 1017.4
20260508071201 49 316 1.0 5.0 0.00 0.01 0.00 78 1017.4
20260508070658 49 334 1.0 4.0 0.00 0.01 0.00 77 1017.4
20260508070158 50 282 1.0 4.0 0.00 0.01 0.00 77 1017.1
20260508065704 50 296 1.0 5.0 0.00 0.01 0.00 77 1017.1
20260508065207 50 274 0.0 3.0 0.00 0.01 0.00 79 1017.1
20260508064701 49 331 0.0 4.0 0.00 0.01 0.00 79 1017.1
20260508064201 49 253 1.0 4.0 0.00 0.01 0.00 80 1017.1
20260508063701 49 309 1.0 4.0 0.00 0.01 0.00 80 1016.7
20260508063158 49 330 2.0 4.0 0.00 0.01 0.00 79 1016.7
20260508062658 49 304 2.0 5.0 0.00 0.01 0.00 80 1016.7
20260508062158 49 281 1.0 3.0 0.00 0.01 0.00 81 1016.7
20260508061701 49 317 1.0 3.0 0.00 0.01 0.00 80 1016.7
20260508061201 49 330 1.0 3.0 0.00 0.01 0.00 81 1016.7
20260508060702 49 303 1.0 4.0 0.00 0.01 0.00 81 1016.7
20260508060207 49 319 1.0 3.0 0.00 0.01 0.00 81 1016.7
20260508055658 49 271 1.0 4.0 0.00 0.01 0.00 82 1016.7
20260508055158 48 280 1.0 3.0 0.00 0.01 0.00 82 1016.7
20260508054658 48 334 1.0 4.0 0.00 0.01 0.00 83 1016.3
20260508054207 48 310 2.0 4.0 0.00 0.01 0.00 83 1016.3
20260508053658 48 305 1.0 5.0 0.00 0.01 0.00 83 1016.3
20260508053204 48 282 2.0 5.0 0.00 0.01 0.00 83 1016.3
20260508052701 48 308 1.0 5.0 0.00 0.01 0.00 83 1016.3
20260508052207 48 315 3.0 5.0 0.00 0.01 0.00 83 1016.3
20260508051658 48 315 2.0 5.0 0.00 0.01 0.00 83 1016.3
20260508051201 48 311 1.0 4.0 0.00 0.01 0.00 83 1016.3
20260508050658 48 313 1.0 4.0 0.00 0.01 0.00 83 1016.3
20260508050201 48 321 1.0 3.0 0.00 0.01 0.00 84 1016.3
20260508045701 48 275 1.0 3.0 0.00 0.01 0.00 84 1016.0
20260508045158 48 337 1.0 3.0 0.00 0.01 0.00 84 1016.0
20260508044707 48 320 2.0 4.0 0.00 0.01 0.00 84 1016.0
20260508044158 48 271 1.0 4.0 0.00 0.01 0.00 84 1016.0
20260508043704 48 286 1.0 3.0 0.00 0.01 0.00 84 1016.0
20260508043204 48 299 1.0 4.0 0.00 0.01 0.00 84 1016.0
20260508042701 48 268 1.0 4.0 0.00 0.01 0.00 84 1016.0
20260508042201 48 313 1.0 3.0 0.00 0.01 0.00 84 1016.0
20260508041658 48 290 1.0 3.0 0.00 0.01 0.00 84 1016.0
20260508041207 48 292 1.0 3.0 0.00 0.01 0.00 84 1016.0
20260508040658 48 307 1.0 3.0 0.00 0.01 0.00 84 1016.0
20260508040204 48 316 0.0 2.0 0.00 0.01 0.00 84 1015.6
20260508035658 48 321 0.0 2.0 0.00 0.01 0.00 84 1015.6
20260508035201 48 282 0.0 2.0 0.00 0.01 0.00 85 1016.0
20260508034658 48 243 1.0 2.0 0.00 0.01 0.00 85 1015.6
20260508034158 48 284 1.0 2.0 0.00 0.01 0.00 85 1015.6
20260508033701 48 311 0.0 3.0 0.00 0.01 0.00 84 1015.6
20260508033201 48 311 2.0 3.0 0.00 0.01 0.00 84 1015.6
20260508032701 48 304 1.0 3.0 0.00 0.01 0.00 85 1015.6
20260508032201 48 299 1.0 3.0 0.00 0.01 0.00 85 1015.6
20260508031704 48 283 1.0 3.0 0.00 0.01 0.00 85 1015.6
20260508031158 48 312 1.0 2.0 0.00 0.01 0.00 85 1015.6
20260508030704 48 308 1.0 2.0 0.00 0.01 0.00 85 1015.6
20260508030204 48 271 0.0 3.0 0.00 0.01 0.00 85 1015.6
20260508025701 48 331 1.0 4.0 0.00 0.01 0.00 85 1015.6
20260508025158 48 323 1.0 3.0 0.00 0.01 0.00 85 1015.6
20260508024701 48 306 1.0 3.0 0.00 0.01 0.00 86 1015.6
20260508024158 48 281 0.0 3.0 0.00 0.01 0.00 86 1015.6
20260508023704 48 319 2.0 4.0 0.00 0.01 0.00 86 1015.6
20260508023158 48 313 1.0 3.0 0.00 0.01 0.00 86 1015.6
20260508022658 48 306 1.0 3.0 0.00 0.01 0.00 86 1015.6
20260508022201 48 289 1.0 3.0 0.00 0.01 0.00 86 1015.6
20260508021701 48 296 0.0 3.0 0.00 0.01 0.00 86 1015.6
20260508021158 48 298 1.0 3.0 0.00 0.01 0.00 86 1015.6
20260508020704 48 289 1.0 4.0 0.00 0.01 0.00 86 1015.6
20260508020158 48 311 1.0 4.0 0.00 0.01 0.00 86 1015.6
20260508015707 48 285 0.0 2.0 0.00 0.01 0.00 86 1015.6
20260508015201 48 303 1.0 2.0 0.00 0.01 0.00 86 1015.6
20260508014658 48 327 1.0 3.0 0.00 0.01 0.00 86 1015.6
20260508014158 48 321 1.0 3.0 0.00 0.01 0.00 86 1015.6
20260508013658 48 286 0.0 3.0 0.00 0.01 0.00 86 1015.6
20260508013204 48 325 1.0 3.0 0.00 0.01 0.00 85 1016.0
20260508012701 48 309 1.0 4.0 0.00 0.01 0.00 85 1015.6
20260508012201 48 306 1.0 3.0 0.00 0.01 0.00 85 1015.6
20260508011658 48 294 0.0 1.0 0.00 0.01 0.00 85 1015.6
20260508011201 48 316 0.0 2.0 0.00 0.01 0.00 85 1015.6
20260508010704 49 303 1.0 2.0 0.00 0.01 0.00 85 1015.6
20260508010158 48 315 0.0 2.0 0.00 0.01 0.00 85 1016.0
20260508005701 49 313 0.0 2.0 0.00 0.01 0.00 86 1016.0
20260508005201 49 306 1.0 4.0 0.00 0.01 0.00 86 1016.0
20260508004658 49 283 1.0 3.0 0.00 0.01 0.00 85 1016.0
20260508004158 49 319 1.0 3.0 0.00 0.01 0.00 85 1015.6
20260508003704 49 321 0.0 2.0 0.00 0.01 0.00 85 1016.0
20260508003204 49 302 0.0 1.0 0.00 0.01 0.00 85 1016.0
20260508002658 49 230 0.0 1.0 0.00 0.01 0.00 85 1016.0
20260508002201 48 321 0.0 2.0 0.00 0.02 0.00 85 1016.0
20260508001658 49 342 1.0 2.0 0.00 0.02 0.00 84 1016.0
20260508001158 49 294 0.0 1.0 0.00 0.02 0.00 85 1016.0
20260508000701 49 273 0.0 2.0 0.00 0.02 0.00 85 1016.0
20260508000205 49 261 0.0 1.0 0.00 0.02 0.00 85 1016.0
20260507235704 48 262 0.0 2.0 0.00 0.02 0.00 85 1016.0
20260507235201 48 307 1.0 2.0 0.00 0.03 0.00 85 1016.0
20260507234701 48 306 0.0 2.0 0.00 0.03 0.00 85 1016.0
20260507234158 48 300 0.0 2.0 0.00 0.03 0.00 85 1016.0
20260507233658 48 300 0.0 3.0 0.00 0.03 0.00 85 1016.0
20260507233158 48 315 0.0 3.0 0.00 0.03 0.00 85 1016.0
20260507232701 48 261 2.0 3.0 0.00 0.03 0.00 85 1016.0
20260507232158 48 267 1.0 3.0 0.00 0.03 0.00 85 1016.0
20260507231658 48 292 1.0 2.0 0.00 0.03 0.00 85 1016.0
20260507231158 48 325 0.0 2.0 0.00 0.03 0.00 86 1016.0
20260507230701 48 312 1.0 2.0 0.00 0.03 0.00 86 1016.0
20260507230204 48 278 0.0 3.0 0.00 0.03 0.00 86 1016.0
20260507225707 48 319 1.0 3.0 0.00 0.03 0.00 86 1016.0
20260507225158 48 285 0.0 2.0 0.00 0.03 0.00 86 1016.0
20260507224658 48 319 1.0 3.0 0.00 0.03 0.00 86 1016.0
20260507224201 48 319 1.0 3.0 0.00 0.03 0.00 86 1016.0
20260507223701 48 324 1.0 4.0 0.00 0.03 0.00 86 1016.0
20260507223158 48 325 2.0 4.0 0.00 0.03 0.00 86 1016.0
20260507222658 48 307 1.0 4.0 0.00 0.03 0.00 86 1016.0
20260507222201 48 308 2.0 4.0 0.00 0.03 0.00 86 1016.0
20260507221658 48 307 1.0 3.0 0.00 0.03 0.00 87 1016.0
20260507221201 48 236 0.0 2.0 0.00 0.03 0.00 87 1016.0
20260507220701 48 281 0.0 2.0 0.00 0.03 0.00 87 1016.0
20260507220207 48 325 1.0 2.0 0.00 0.03 0.00 87 1016.0
20260507215701 48 281 0.0 4.0 0.00 0.03 0.00 88 1016.0
20260507215158 48 326 2.0 4.0 0.00 0.03 0.00 88 1016.0
20260507214658 48 346 2.0 4.0 0.00 0.03 0.00 88 1016.0
20260507214201 48 317 1.0 2.0 0.00 0.03 0.00 88 1016.0
20260507213658 48 319 1.0 3.0 0.00 0.03 0.00 88 1015.6
20260507213158 48 304 1.0 4.0 0.00 0.03 0.00 88 1015.6
20260507212658 49 328 1.0 4.0 0.00 0.03 0.00 87 1015.6
20260507212158 49 319 1.0 3.0 0.00 0.03 0.00 87 1015.6
20260507211701 49 299 1.0 3.0 0.00 0.03 0.00 87 1015.6
20260507211158 49 323 1.0 3.0 0.00 0.03 0.00 87 1015.6
20260507210658 49 322 1.0 3.0 0.00 0.03 0.00 86 1015.6
20260507210201 49 309 1.0 3.0 0.00 0.03 0.00 86 1015.6
20260507205658 49 335 2.0 4.0 0.00 0.03 0.00 86 1015.6
20260507205158 49 321 1.0 2.0 0.00 0.03 0.00 86 1015.6
20260507204701 49 331 0.0 4.0 0.00 0.03 0.00 86 1015.6
20260507204158 49 334 1.0 4.0 0.00 0.03 0.00 86 1015.6
20260507203658 49 317 0.0 6.0 0.00 0.03 0.00 86 1015.3
20260507203158 49 293 1.0 5.0 0.00 0.03 0.00 86 1015.3
20260507202701 49 318 1.0 5.0 0.00 0.04 0.00 86 1015.3
20260507202204 49 306 1.0 7.0 0.00 0.04 0.00 87 1015.3
20260507201658 49 350 3.0 7.0 0.00 0.05 0.00 86 1015.3
20260507201158 49 339 2.0 6.0 0.00 0.05 0.00 86 1015.3
20260507200701 49 357 3.0 6.0 0.00 0.05 0.00 84 1015.3
20260507200158 49 350 1.0 6.0 0.00 0.06 0.00 83 1015.3
20260507195701 50 339 3.0 6.0 0.00 0.06 0.00 81 1015.3
20260507195158 51 323 3.0 6.0 0.00 0.06 0.00 79 1015.0
20260507194704 51 298 0.0 2.0 0.00 0.07 0.00 79 1015.0
20260507194201 51 302 1.0 3.0 0.00 0.07 0.00 80 1015.0
20260507193658 51 314 1.0 3.0 0.00 0.07 0.00 80 1015.0
20260507193158 51 296 0.0 2.0 0.00 0.07 0.00 80 1015.0
20260507192658 51 314 0.0 2.0 0.00 0.07 0.00 79 1015.0
20260507192158 51 316 0.0 3.0 0.00 0.07 0.00 79 1015.0
20260507191658 51 305 1.0 3.0 0.00 0.07 0.00 79 1015.0
20260507191158 51 291 1.0 3.0 0.00 0.07 0.00 79 1014.6
20260507190701 51 263 1.0 5.0 0.00 0.07 0.00 79 1014.6
20260507190204 52 294 2.0 5.0 0.00 0.07 0.00 78 1014.6
20260507185701 52 288 1.0 6.0 0.00 0.07 0.00 77 1014.6
20260507185158 52 279 0.0 6.0 0.00 0.07 0.00 77 1014.6
20260507184701 52 264 1.0 4.0 0.00 0.07 0.00 77 1014.2
20260507184201 52 271 2.0 4.0 0.00 0.07 0.00 76 1014.2
20260507183658 52 290 1.0 3.0 0.00 0.07 0.00 76 1014.2
20260507183204 52 292 1.0 3.0 0.00 0.07 0.00 76 1014.2
20260507182701 52 251 1.0 5.0 0.00 0.07 0.00 76 1014.2
20260507182158 53 254 1.0 4.0 0.00 0.07 0.00 76 1014.2
20260507181704 53 247 0.0 4.0 0.00 0.07 0.00 75 1014.2
20260507181201 53 308 2.0 4.0 0.00 0.07 0.00 74 1014.2
20260507180658 53 248 1.0 4.0 0.00 0.07 0.00 75 1013.9
20260507180158 53 244 1.0 5.0 0.00 0.07 0.00 75 1013.9
20260507175701 53 265 1.0 4.0 0.00 0.07 0.00 74 1013.9
20260507175158 53 250 1.0 5.0 0.00 0.07 0.00 75 1013.9
20260507174701 53 238 2.0 6.0 0.00 0.07 0.00 75 1013.9
20260507174201 53 271 2.0 6.0 0.00 0.07 0.00 74 1013.9
20260507173701 53 244 0.0 4.0 0.00 0.07 0.00 76 1013.9
20260507173204 53 292 2.0 4.0 0.00 0.07 0.00 75 1013.9
20260507172701 53 283 1.0 3.0 0.00 0.07 0.00 76 1013.9
20260507172204 53 314 1.0 4.0 0.00 0.07 0.00 76 1013.9
20260507171701 53 326 2.0 3.0 0.00 0.07 0.00 74 1013.9
20260507171158 53 283 1.0 5.0 0.00 0.07 0.00 74 1013.9
20260507170701 53 274 1.0 5.0 0.00 0.08 0.00 74 1013.9
20260507170201 53 254 2.0 6.0 0.00 0.08 0.00 73 1013.9
20260507165658 53 270 2.0 6.0 0.00 0.09 0.00 73 1013.9
20260507165158 53 251 2.0 5.0 0.00 0.09 0.00 73 1013.9
20260507164658 53 264 1.0 5.0 0.00 0.10 0.00 73 1013.9
20260507164204 53 238 2.0 8.0 0.00 0.12 0.00 73 1013.5
20260507163701 53 268 4.0 8.0 0.00 0.13 0.00 72 1013.5
20260507163207 53 256 2.0 7.0 0.00 0.13 0.00 72 1013.5
20260507162658 53 249 3.0 6.0 0.00 0.14 0.00 73 1013.5
20260507162201 53 251 4.0 6.0 0.00 0.15 0.00 72 1013.5
20260507161658 53 261 1.0 4.0 0.00 0.17 0.00 74 1013.5
20260507161201 53 244 2.0 6.0 0.00 0.18 0.00 73 1013.5
20260507160701 53 298 1.0 7.0 0.00 0.19 0.00 73 1013.5
20260507160201 53 247 3.0 9.0 0.00 0.19 0.00 72 1013.5
20260507155658 53 251 1.0 7.0 0.00 0.20 0.00 73 1013.5
20260507155201 53 243 4.0 7.0 0.00 0.20 0.00 71 1013.5
20260507154701 53 260 2.0 7.0 0.00 0.20 0.00 72 1013.5
20260507154158 53 248 1.0 5.0 0.00 0.20 0.00 72 1013.5
20260507153658 53 248 1.0 5.0 0.00 0.20 0.00 72 1013.5
20260507153201 54 249 2.0 8.0 0.00 0.20 0.00 71 1013.5
20260507152701 54 246 2.0 7.0 0.00 0.20 0.00 70 1013.5
20260507152158 54 296 1.0 7.0 0.00 0.20 0.00 69 1013.2
20260507151701 54 265 2.0 9.0 0.00 0.20 0.00 69 1013.2
20260507151201 54 270 4.0 9.0 0.00 0.20 0.00 69 1013.2
20260507150658 54 233 3.0 8.0 0.00 0.20 0.00 68 1013.2
20260507150201 54 289 2.0 7.0 0.00 0.20 0.00 67 1013.2
20260507145701 55 263 3.0 7.0 0.00 0.20 0.00 67 1013.2
20260507145158 55 264 2.0 6.0 0.00 0.20 0.00 68 1013.2
20260507144704 55 234 1.0 5.0 0.00 0.20 0.00 68 1013.2
20260507144201 55 277 2.0 10.0 0.00 0.20 0.00 68 1013.2
20260507143658 55 241 3.0 12.0 0.00 0.20 0.00 68 1013.2
20260507143201 55 247 4.0 10.0 0.00 0.20 0.00 68 1013.2
20260507142701 55 272 1.0 8.0 0.00 0.20 0.00 70 1013.2
20260507142201 54 304 5.0 10.0 0.00 0.20 0.00 70 1013.2
20260507141704 54 237 5.0 10.0 0.00 0.20 0.00 70 1013.2